Location: Les Coudrans
(46.1056°N, 1.1158°W)
Time: 14:02:58
(UTC+00:00)

CSL-04 Rocket - Pass Details

Date: 03 March 2021
Orbit: 805 x 861 km, 98.9° (Epoch: 19 April)

Event Time Altitude Azimuth Distance (km) Brightness Sun altitude
Rises 18:22:10 0° 140° (SE) 3,426 6.5 -5.7°
Reaches altitude 10° 18:24:40 10° 133° (SE) 2,491 5.7 -6.1°
Maximum altitude 18:29:47 40° 66° (ENE) 1,253 4.2 -7.0°
Drops below altitude 10° 18:34:52 10° 359° (N) 2,485 6.2 -7.9°
Sets 18:37:21 0° 352° (N) 3,418 7.0 -8.3°
